Pinedale, WY

5:18 AM MST on December 11, 2017 (GMT -0700)
Wenz

Weather History for KPNA - June, 2013

Change the Weather History Date:

Thursday, June 13, 2013

  Actual Average (KBPI) Record (KBPI)
Temperature  
Mean Temperature 58 °F -  
Max Temperature 78 °F 66 °F 85 °F (2006)
Min Temperature 37 °F 34 °F 24 °F (2001)
Degree Days  
Heating Degree Days 8    
Growing Degree Days 8 (Base 50)    
Moisture  
Dew Point 29 °F    
Average Humidity 38    
Maximum Humidity 81    
Minimum Humidity 12    
Precipitation  
Precipitation 0.00 in - - ()
Sea Level Pressure  
Sea Level Pressure 30.07 in    
Wind  
Wind Speed 11 mph (WSW)    
Max Wind Speed 33 mph    
Max Gust Speed 48 mph    
Visibility 10 miles    
Events      
Averages and records for this station are not official NWS values.
T = Trace of Precipitation, MM = Missing Value Source: NWS Daily Summary

Daily Weather History Graph

Daily Weather History Graph

Search for Another Location

Airport or City:

Trip Planner

Search our weather history database for the weather conditions in past years. The results will help you decide how hot, cold, wet, or windy it might be!

Date:

Astronomy

Jun. 13, 2013 Rise Set
Actual Time 5:40 AM MDT 8:58 PM MDT
Civil Twilight 5:05 AM MDT 9:33 PM MDT
Nautical Twilight 4:19 AM MDT 10:19 PM MDT
Astronomical Twilight 3:23 AM MDT 11:15 PM MDT
Moon 10:25 AM MDT (6/13) No Moon Set
Length of Visible Light 16h 28m
Length of Day
15h 18m
Waxing Crescent, 22% of the Moon is Illuminated
Jun 13
Waxing Crescent
Jun 16
First Quarter
Jun 23
Full
Jun 29
Last Quarter
Jul 8
New

Hourly Weather History & Observations

Time (MDT) Temp. Windchill Dew Point Humidity Pressure Visibility Wind Dir Wind Speed Gust Speed Precip Events Conditions
12:15 AM 46.4 °F 42.4 °F 26.6 °F 46% 30.13 in 10.0 mi NW 8.1 mph - N/A   Scattered Clouds
12:35 AM 46.4 °F 45.2 °F 28.4 °F 50% 30.13 in 10.0 mi NNW 3.5 mph - N/A   Scattered Clouds
12:55 AM 46.4 °F - 26.6 °F 46% 30.12 in 10.0 mi Calm Calm - N/A   Scattered Clouds
1:15 AM 50.0 °F - 28.4 °F 43% 30.11 in 10.0 mi Calm Calm - N/A   Scattered Clouds
1:35 AM 50.0 °F - 26.6 °F 40% 30.11 in 10.0 mi Calm Calm - N/A   Clear
1:55 AM 46.4 °F - 26.6 °F 46% 30.11 in 10.0 mi Calm Calm - N/A   Clear
2:15 AM 48.2 °F - 26.6 °F 43% 30.13 in 10.0 mi West 9.2 mph - N/A   Clear
2:35 AM 46.4 °F - 30.2 °F 53% 30.12 in 10.0 mi Calm Calm - N/A   Clear
2:55 AM 44.6 °F 43.1 °F 30.2 °F 57% 30.11 in 10.0 mi WNW 3.5 mph - N/A   Clear
3:15 AM 44.6 °F 41.4 °F 30.2 °F 57% 30.11 in 10.0 mi WNW 5.8 mph - N/A   Clear
3:35 AM 42.8 °F 40.1 °F 30.2 °F 61% 30.10 in 10.0 mi WNW 4.6 mph - N/A   Clear
3:55 AM 41.0 °F 35.8 °F 30.2 °F 65% 30.10 in 10.0 mi NW 8.1 mph - N/A   Clear
4:15 AM 39.2 °F 35.9 °F 30.2 °F 70% 30.11 in 10.0 mi WNW 4.6 mph - N/A   Clear
4:35 AM 39.2 °F 35.9 °F 32.0 °F 75% 30.11 in 10.0 mi NW 4.6 mph - N/A   Clear
4:55 AM 41.0 °F 38.0 °F 32.0 °F 70% 30.10 in 10.0 mi NW 4.6 mph - N/A   Clear
5:15 AM 37.4 °F 32.8 °F 32.0 °F 81% 30.11 in 10.0 mi West 5.8 mph - N/A   Clear
5:35 AM 37.4 °F 30.3 °F 32.0 °F 81% 30.11 in 10.0 mi WNW 10.4 mph - N/A   Clear
5:55 AM 37.4 °F 32.8 °F 32.0 °F 81% 30.11 in 10.0 mi West 5.8 mph - N/A   Clear
6:15 AM 41.0 °F 36.4 °F 33.8 °F 76% 30.11 in 10.0 mi WNW 6.9 mph - N/A   Clear
6:35 AM 41.0 °F 38.0 °F 33.8 °F 76% 30.12 in 10.0 mi NNW 4.6 mph - N/A   Scattered Clouds
6:55 AM 41.0 °F 39.0 °F 33.8 °F 76% 30.11 in 10.0 mi WSW 3.5 mph - N/A   Clear
7:15 AM 44.6 °F - 35.6 °F 71% 30.11 in 10.0 mi Calm Calm - N/A   Clear
7:35 AM 46.4 °F 45.2 °F 35.6 °F 66% 30.11 in 10.0 mi West 3.5 mph - N/A   Clear
7:55 AM 48.2 °F - 35.6 °F 62% 30.11 in 10.0 mi Calm Calm - N/A   Clear
8:15 AM 53.6 °F - 33.8 °F 47% 30.11 in 10.0 mi Calm Calm - N/A   Clear
8:35 AM 55.4 °F - 32.0 °F 41% 30.13 in 10.0 mi Calm Calm - N/A   Scattered Clouds
8:55 AM 60.8 °F - 32.0 °F 34% 30.13 in 10.0 mi Calm Calm - N/A   Scattered Clouds
9:15 AM 62.6 °F - 32.0 °F 32% 30.13 in 10.0 mi SE 3.5 mph - N/A   Scattered Clouds
9:35 AM 62.6 °F - 32.0 °F 32% 30.13 in 10.0 mi ESE 8.1 mph 18.4 mph N/A   Mostly Cloudy
9:55 AM 68.0 °F - 32.0 °F 26% 30.11 in 10.0 mi SSW 10.4 mph 16.1 mph N/A   Scattered Clouds
10:15 AM 69.8 °F - 32.0 °F 25% 30.10 in 10.0 mi SSW 11.5 mph 18.4 mph N/A   Clear
10:35 AM 71.6 °F - 32.0 °F 23% 30.09 in 10.0 mi SW 15.0 mph 21.9 mph N/A   Clear
10:55 AM 71.6 °F - 32.0 °F 23% 30.08 in 10.0 mi South 12.7 mph 18.4 mph N/A   Clear
11:15 AM 71.6 °F - 32.0 °F 23% 30.08 in 10.0 mi South 18.4 mph 24.2 mph N/A   Clear
11:35 AM 73.4 °F - 32.0 °F 22% 30.08 in 10.0 mi SSW 27.6 mph 34.5 mph N/A   Clear
11:55 AM 73.4 °F - 30.2 °F 20% 30.06 in 10.0 mi SSW 25.3 mph 32.2 mph N/A   Clear
12:15 PM 73.4 °F - 30.2 °F 20% 30.05 in 10.0 mi SSW 21.9 mph 29.9 mph N/A   Clear
12:35 PM 77.0 °F - 26.6 °F 16% 30.04 in 10.0 mi SW 23.0 mph 36.8 mph N/A   Clear
12:55 PM 71.6 °F - 24.8 °F 17% 30.04 in 4.0 mi South 24.2 mph 44.9 mph N/A   Haze
1:15 PM 77.0 °F - 26.6 °F 16% 30.03 in 10.0 mi South 17.3 mph 32.2 mph N/A   Scattered Clouds
1:35 PM 77.0 °F - 24.8 °F 14% 30.03 in 10.0 mi WSW 27.6 mph 42.6 mph N/A   Scattered Clouds
1:55 PM 77.0 °F - 26.6 °F 16% 30.03 in 10.0 mi SW 20.7 mph 29.9 mph N/A   Scattered Clouds
2:15 PM 78.8 °F - 24.8 °F 14% 30.02 in 10.0 mi WSW 25.3 mph 34.5 mph N/A   Clear
2:35 PM 78.8 °F - 23.0 °F 13% 30.02 in 10.0 mi SW 23.0 mph 33.4 mph N/A   Clear
2:55 PM 78.8 °F - 23.0 °F 13% 30.01 in 10.0 mi SSW 25.3 mph 34.5 mph N/A   Clear
3:15 PM 78.8 °F - 23.0 °F 13% 30.01 in 10.0 mi SW 17.3 mph 31.1 mph N/A   Scattered Clouds
3:35 PM 78.8 °F - 26.6 °F 15% 30.01 in 10.0 mi WSW 25.3 mph 31.1 mph N/A   Scattered Clouds
3:55 PM 78.8 °F - 26.6 °F 15% 30.00 in 10.0 mi SSW 24.2 mph 28.8 mph N/A   Scattered Clouds
4:15 PM 77.0 °F - 26.6 °F 16% 30.00 in 10.0 mi SSW 16.1 mph 33.4 mph N/A   Scattered Clouds
4:35 PM 78.8 °F - 24.8 °F 14% 29.99 in 10.0 mi SSW 19.6 mph 29.9 mph N/A   Scattered Clouds
4:55 PM 77.0 °F - 23.0 °F 13% 29.99 in 10.0 mi South 19.6 mph 35.7 mph N/A   Scattered Clouds
5:15 PM 78.8 °F - 23.0 °F 13% 29.98 in 10.0 mi SW 18.4 mph 25.3 mph N/A   Clear
5:35 PM 77.0 °F - 26.6 °F 16% 29.97 in 10.0 mi WSW 17.3 mph 24.2 mph N/A   Scattered Clouds
5:55 PM 77.0 °F - 23.0 °F 13% 29.97 in 10.0 mi SW 13.8 mph 26.5 mph N/A   Clear
6:15 PM 77.0 °F - 24.8 °F 14% 29.95 in 10.0 mi SW 13.8 mph 24.2 mph N/A   Clear
6:35 PM 77.0 °F - 21.2 °F 12% 29.95 in 10.0 mi SW 17.3 mph 28.8 mph N/A   Clear
6:55 PM 77.0 °F - 21.2 °F 12% 29.95 in 10.0 mi SW 18.4 mph 27.6 mph N/A   Clear
7:15 PM 75.2 °F - 21.2 °F 13% 29.95 in 10.0 mi SW 18.4 mph 34.5 mph N/A   Clear
7:35 PM 73.4 °F - 23.0 °F 15% 29.95 in 10.0 mi SW 18.4 mph 28.8 mph N/A   Clear
7:55 PM 73.4 °F - 24.8 °F 16% 29.94 in 10.0 mi SW 18.4 mph 23.0 mph N/A   Clear
8:15 PM 71.6 °F - 24.8 °F 17% 29.95 in 10.0 mi SW 17.3 mph 23.0 mph N/A   Clear
8:35 PM 69.8 °F - 33.8 °F 27% 29.97 in 10.0 mi WNW 24.2 mph 32.2 mph N/A   Clear
8:55 PM 60.8 °F - 35.6 °F 39% 29.99 in 10.0 mi WNW 26.5 mph 35.7 mph N/A   Clear
9:15 PM 57.2 °F - 33.8 °F 41% 30.00 in 10.0 mi West 20.7 mph 31.1 mph N/A   Clear
9:35 PM 55.4 °F - 32.0 °F 41% 30.04 in 10.0 mi WNW 27.6 mph 35.7 mph N/A   Clear
9:55 PM 51.8 °F - 32.0 °F 47% 30.07 in 10.0 mi WNW 33.4 mph 44.9 mph N/A   Clear
10:15 PM 50.0 °F - 32.0 °F 50% 30.11 in 10.0 mi WNW 33.4 mph 43.7 mph N/A   Clear
10:35 PM 48.2 °F - 32.0 °F 54% 30.12 in 10.0 mi NW 32.2 mph 48.3 mph N/A   Clear
10:55 PM 46.4 °F 36.9 °F 32.0 °F 57% 30.15 in 10.0 mi NW 32.2 mph 41.4 mph N/A   Scattered Clouds
11:15 PM 46.4 °F 36.9 °F 32.0 °F 57% 30.17 in 10.0 mi NW 32.2 mph 46.0 mph N/A   Clear
11:35 PM 46.4 °F 36.7 °F 32.0 °F 57% 30.16 in 10.0 mi NW 33.4 mph 43.7 mph N/A   Clear
11:55 PM 48.2 °F - 32.0 °F 54% 30.17 in 10.0 mi NW 32.2 mph 42.6 mph N/A   Clear